www.pogodaiklimat.ru

Погода и климат >> Архив погоды >> Великобритания >> Фарнборо


ПОГОДА в Фарнборо

  • Прогноз погоды в Фарнборо
  • Монитор погоды в Фарнборо

АРХИВ ПОГОДЫ в Фарнборо

Время (UTC), дата Ветер
(напр.,м/с)
 
Видим.   Явления Облачность Т
(С)
Тd
(С)
f
(%)
Тe
(С)
Тes
(С)
Комфортность P
(гПа)
Po
(гПа)
Тmin
(С)
Tmax
(С)
R
(мм)
R24
(мм)
S
(см)
10 12.06 СЗ 3 >70 км н/о +14.0 +10.1 77 +13 +13 1009.5 1001.8
11 12.06 СЗ 4 60 км н/о +14.6 +10.2 75 +14 +14 1009.8 1002.0
12 12.06 СЗ 3 65 км н/о +15.1 +10.1 72 +14 +14 1009.4 1001.6
13 12.06 С 3 60 км н/о +14.6 +9.8 73 +14 +14 1009.3 1001.5
14 12.06 СЗ 4 16 км н/о +13.6 +10.6 82 +12 +12 1009.4 1001.6
15 12.06 В 3 2400 м н/о +12.4 +10.8 90 +11 +11 1009.4 1001.6
16 12.06 СЗ 1 6000 м н/о +12.5 +11.6 94 +12 +12 1009.0 1001.2
17 12.06 СВ 3 8000 м н/о +12.3 +11.3 94 +11 +11 1008.7 1000.9
18 12.06 СВ 1 11 км н/о +12.4 +11.3 93 +12 +12 1008.2 1000.4 +15.2 9
19 12.06 ЮВ 2 6000 м н/о +12.2 +11.5 95 +11 +11 1008.0 1000.2
20 12.06 ЮЗ 2 3400 м н/о +11.9 +11.4 97 +11 +11 1008.1 1000.3
21 12.06 ЮЗ 2 3600 м н/о +11.7 +11.3 97 +11 +11 1008.2 1000.4
22 12.06 ЮЗ 2 7000 м н/о +11.3 +11.0 98 +10 +10 1008.0 1000.1
23 12.06 ЮЗ 1 9000 м н/о +10.8 +10.5 98 +10 +10 1007.4 999.6
00 13.06 Ю 2 5000 м н/о +10.8 +10.6 99 +10 +10 1006.9 999.1 4
01 13.06 Ю 2 6000 м н/о +11.1 +10.9 99 +10 +10 1006.4 998.5
02 13.06 ЮЗ 3 13 км н/о +11.2 +10.8 97 +9 +9 1005.8 998.0
03 13.06 Ю 3 10 км н/о +11.0 +10.5 97 +9 +9 1005.3 997.5
04 13.06 ЮЗ 2 13 км н/о +10.9 +10.5 97 +9 +9 1005.3 997.5
05 13.06 Ю 3 8000 м н/о +11.2 +10.8 97 +9 +9 1005.3 997.4
06 13.06 Ю 4 12 км н/о +11.7 +11.1 96 +9 +9 1005.0 997.2 +10.6 6
07 13.06 Ю 5 20 км н/о +11.7 +10.9 95 +9 +9 1005.0 997.2
08 13.06 ЮЗ 5 30 км н/о +11.7 +10.2 91 +9 +9 1005.1 997.3
09 13.06 Ю 4 2900 м н/о +11.6 +10.8 95 +9 +9 1005.1 997.3
10 13.06 ЮЗ 6 3100 м н/о +11.7 +10.8 94 +9 +9 1005.2 997.4
11 13.06 ЮЗ 6 5000 м н/о +11.7 +10.7 94 +9 +9 1005.3 997.5
12 13.06 Ю 7 13 км н/о +12.8 +11.3 91 +10 +10 1005.3 997.5 10
13 13.06 Ю 7 35 км н/о +13.1 +11.4 89 +10 +10 1005.4 997.6
14 13.06 Ю 7 35 км н/о +12.8 +11.2 90 +10 +10 1005.3 997.6
15 13.06 Ю 7 35 км н/о +13.4 +11.2 87 +11 +11 1005.4 997.6
16 13.06 ЮЗ 7 60 км н/о +13.4 +11.5 88 +11 +11 1005.4 997.7
17 13.06 ЮЗ 7
{13}
55 км н/о +13.3 +11.4 88 +11 +11 1005.5 997.8
18 13.06 Ю 7 9000 м н/о +12.6 +11.5 93 +10 +10 1005.8 998.0 +14.1 10
19 13.06 ЮЗ 7 14 км н/о +12.3 +11.0 92 +9 +9 1006.7 998.9
20 13.06 ЮЗ 5 18 км н/о +12.1 +11.1 94 +10 +10 1007.2 999.4
21 13.06 ЮЗ 7 60 км н/о +11.8 +10.3 91 +9 +9 1008.1 1000.3
22 13.06 ЮЗ 4 35 км н/о +11.6 +11.1 97 +9 +9 1008.4 1000.6
23 13.06 Ю 3 35 км н/о +11.9 +11.3 96 +10 +10 1008.6 1000.8
00 14.06 Ю 3 22 км н/о +12.0 +11.5 97 +10 +10 1008.5 1000.7 0.6
01 14.06 Ю 3 15 км н/о +12.0 +11.5 97 +10 +10 1008.4 1000.6
02 14.06 Ю 4 9000 м н/о +12.0 +11.5 97 +10 +10 1008.2 1000.4
03 14.06 Ю 5 17 км н/о +12.0 +11.4 96 +10 +10 1008.3 1000.5
04 14.06 Ю 4 27 км н/о +12.0 +11.2 95 +10 +10 1008.6 1000.8
05 14.06 Ю 4 30 км н/о +12.1 +11.2 94 +10 +10 1008.7 1000.9
06 14.06 Ю 5 27 км н/о +12.6 +11.4 92 +10 +10 1008.8 1001.0 +11.5 1
07 14.06 Ю 4 40 км н/о +13.4 +12.3 93 +12 +12 1009.2 1001.4
08 14.06 Ю 6 27 км н/о +14.0 +11.9 87 +12 +12 1009.6 1001.9
09 14.06 Ю 6 35 км н/о +14.8 +11.5 81 +13 +13 1009.8 1002.1
10 14.06 Ю 7 30 км н/о +16.0 +11.6 75 +15 +15 1010.0 1002.3
11 14.06 Ю 6 55 км н/о +16.1 +12.4 79 +15 +15 1010.5 1002.8
12 14.06 Ю 8
{13}
25 км н/о +17.0 +11.2 69 +16 +16 1010.5 1002.8 0.2
13 14.06 Ю 7 35 км н/о +16.4 +10.6 69 +15 +15 1010.7 1003.0
14 14.06 Ю 7 45 км н/о +16.3 +10.2 67 +15 +15 1011.0 1003.3
15 14.06 ЮЗ 9
{13}
50 км н/о +17.3 +9.3 59 +16 +16 1010.9 1003.2
16 14.06 Ю 6 >70 км н/о +16.8 +9.7 63 +16 +16 1010.8 1003.1
17 14.06 ЮЗ 7 45 км н/о +17.4 +10.2 63 +16 +16 1010.9 1003.2
18 14.06 ЮЗ 7 55 км н/о +16.8 +9.0 60 +16 +16 1011.3 1003.6 +18.8 0.2
19 14.06 Ю 5 45 км н/о +15.5 +8.8 64 +14 +14 1011.4 1003.6
20 14.06 Ю 4 50 км н/о +14.6 +8.7 68 +13 +13 1011.6 1003.8
21 14.06 Ю 3 45 км н/о +12.5 +8.3 76 +11 +11 1012.1 1004.3
22 14.06 Ю 3 40 км н/о +13.1 +9.5 79 +12 +12 1012.3 1004.5
23 14.06 Ю 2 35 км н/о +11.8 +9.5 86 +11 +11 1012.4 1004.5
00 15.06 ЮВ 2 35 км н/о +11.4 +9.5 88 +11 +11 1012.4 1004.6
01 15.06 Ю 2 30 км н/о +11.2 +9.6 90 +10 +10 1012.2 1004.4
02 15.06 Ю 2 30 км н/о +10.8 +9.9 94 +9 +9 1012.2 1004.3
03 15.06 Ю 3 30 км н/о +11.0 +10.0 94 +9 +9 1011.8 1004.0
04 15.06 Ю 2 27 км н/о +10.2 +9.3 94 +9 +9 1012.1 1004.2
05 15.06 Ю 3 24 км н/о +11.3 +10.7 96 +10 +10 1012.1 1004.2
06 15.06 Ю 4 22 км н/о +12.6 +10.6 88 +11 +11 1012.0 1004.2 +9.4
07 15.06 Ю 3 28 км н/о +13.2 +11.1 87 +12 +12 1012.2 1004.4
08 15.06 Ю 6 45 км н/о +15.4 +10.8 74 +14 +14 1012.1 1004.4
09 15.06 Ю 7 60 км н/о +15.6 +9.7 68 +14 +14 1012.2 1004.5
10 15.06 Ю 7 40 км н/о +16.7 +10.8 68 +16 +16 1012.2 1004.5
11 15.06 Ю 6 50 км н/о +15.5 +10.5 72 +14 +14 1012.5 1004.8
12 15.06 Ю 8 60 км н/о +15.5 +10.5 72 +14 +14 1012.9 1005.2
13 15.06 Ю 7 40 км н/о +14.5 +11.8 84 +12 +12 1013.1 1005.3
14 15.06 Ю 6 25 км н/о +15.0 +13.0 88 +13 +13 1013.0 1005.3
15 15.06 Ю 6 30 км н/о +15.5 +12.6 83 +14 +14 1013.0 1005.2
16 15.06 Ю 6 35 км н/о +16.1 +12.3 78 +15 +15 1012.8 1005.0
17 15.06 Ю 7 30 км н/о +15.0 +12.5 85 +13 +13 1012.9 1005.1
18 15.06 Ю 6 23 км н/о +15.0 +11.9 82 +13 +13 1013.1 1005.3 +17.4 0.6
19 15.06 Ю 7 45 км н/о +14.4 +11.0 80 +12 +12 1013.2 1005.4
20 15.06 ЮЗ 4 55 км н/о +12.8 +9.1 78 +11 +11 1013.6 1005.7
21 15.06 Ю 3 40 км н/о +11.9 +9.5 85 +10 +10 1014.0 1006.1
22 15.06 Ю 4 40 км н/о +11.7 +9.4 86 +9 +9 1014.4 1006.6
23 15.06 Ю 4 30 км н/о +10.4 +9.3 93 +8 +8 1015.0 1007.1
00 16.06 Ю 4 25 км н/о +10.5 +9.7 95 +8 +8 1015.2 1007.2
01 16.06 Ю 3 20 км н/о +10.0 +9.3 95 +8 +8 1015.3 1007.4
02 16.06 Ю 3 15 км н/о +9.6 +9.1 97 +7 +7 1015.4 1007.5
03 16.06 ЮЗ 1 8000 м н/о +9.0 +8.7 98 +9 +9 1015.4 1007.4
04 16.06 В 1 9000 м н/о +8.6 +8.4 99 +8 +8 1015.6 1007.6
05 16.06 ЮВ 3 9000 м н/о +10.4 +10.2 99 +8 +8 1015.5 1007.6
06 16.06 Ю 4 18 км н/о +12.1 +11.5 96 +10 +10 1015.6 1007.7 +8.1
07 16.06 Ю 5 16 км н/о +13.4 +12.2 92 +11 +11 1015.7 1007.9
08 16.06 Ю 6 16 км н/о +14.0 +13.0 94 +12 +12 1015.9 1008.1
09 16.06 Ю 5 9000 м н/о +14.3 +13.4 94 +13 +13 1016.2 1008.4
10 16.06 Ю 6 60 км н/о +15.6 +13.6 88 +14 +14 1016.2 1008.4
11 16.06 ЮЗ 8 40 км н/о +16.4 +12.7 79 +15 +15 1016.4 1008.6
12 16.06 ЮЗ 9
{14}
35 км н/о +18.8 +13.0 69 +19 +19 1016.6 1008.9 0.8
13 16.06 ЮЗ 8
{15}
26 км н/о +18.6 +12.2 66 +18 +18 1016.7 1009.0
14 16.06 ЮЗ 9
{15}
55 км н/о +17.7 +12.1 70 +17 +17 1017.0 1009.3
15 16.06 ЮЗ 8 50 км н/о +17.5 +12.3 72 +16 +16 1017.5 1009.8
16 16.06 ЮЗ 6
{13}
30 км н/о +17.1 +12.1 72 +16 +16 1017.6 1009.8
17 16.06 ЮЗ 7 45 км н/о +17.7 +11.9 69 +17 +17 1017.5 1009.8
18 16.06 ЮЗ 8
{14}
30 км н/о +16.7 +10.5 67 +15 +15 1017.9 1010.1 +19.2 0.8
19 16.06 ЮЗ 7 55 км н/о +16.0 +10.1 68 +15 +15 1018.1 1010.3
20 16.06 Ю 6 30 км н/о +15.3 +10.3 72 +14 +14 1018.1 1010.3
21 16.06 Ю 4 30 км н/о +13.8 +10.2 79 +12 +12 1018.7 1010.9
22 16.06 Ю 4 28 км н/о +13.7 +10.6 82 +12 +12 1018.8 1010.9
23 16.06 Ю 3 28 км н/о +13.5 +10.7 83 +12 +12 1018.7 1010.8
00 17.06 Ю 4 30 км н/о +13.1 +10.4 84 +11 +11 1018.5 1010.6
01 17.06 Ю 3 25 км н/о +11.8 +10.0 89 +10 +10 1018.5 1010.6
02 17.06 Ю 4 21 км н/о +11.5 +10.3 92 +9 +9 1018.1 1010.2
03 17.06 Ю 4 17 км н/о +11.7 +10.7 94 +9 +9 1017.9 1010.0
04 17.06 Ю 3 16 км н/о +10.8 +10.1 95 +9 +9 1018.0 1010.1
05 17.06 Ю 3 18 км н/о +11.5 +10.7 95 +10 +10 1018.0 1010.1
06 17.06 Ю 4 28 км н/о +13.4 +11.6 89 +12 +12 1018.2 1010.3 +10.6
07 17.06 Ю 4 30 км н/о +14.6 +11.5 82 +13 +13 1018.5 1010.7
08 17.06 Ю 6 65 км н/о +16.1 +9.9 67 +15 +15 1018.5 1010.7
09 17.06 Ю 8 40 км н/о +16.2 +9.0 62 +15 +15 1018.4 1010.6
10 17.06 ЮЗ 7 45 км н/о +16.7 +9.2 61 +15 +15 1018.3 1010.5
11 17.06 Ю 6 40 км н/о +18.0 +9.8 59 +17 +17 1018.0 1010.2
12 17.06 ЮЗ 7 20 км н/о +19.5 +10.3 55 +20 +20 1017.8 1010.1
13 17.06 ЮЗ 7 35 км н/о +18.1 +9.4 57 +18 +18 1017.6 1009.8
14 17.06 ЮЗ 5 30 км н/о +19.6 +10.1 54 +21 +21 комфорт 1017.2 1009.6
15 17.06 ЮЗ 6 55 км н/о +18.2 +9.2 56 +18 +18 1017.1 1009.4
16 17.06 ЮЗ 6 65 км н/о +18.0 +9.2 56 +17 +17 1016.9 1009.2
17 17.06 Ю 7 45 км н/о +18.0 +9.0 56 +17 +17 1016.7 1009.0
18 17.06 ЮЗ 6 45 км н/о +16.8 +9.2 61 +16 +16 1016.7 1009.0 +20.2
19 17.06 ЮЗ 4 40 км н/о +16.0 +9.3 64 +15 +15 1016.6 1008.8
20 17.06 Ю 3 50 км н/о +15.3 +9.8 70 +15 +15 1016.6 1008.8
21 17.06 Ю 3 35 км н/о +13.3 +9.6 78 +12 +12 1017.2 1009.3
22 17.06 ЮЗ 2 40 км н/о +11.9 +9.0 82 +11 +11 1017.3 1009.4
23 17.06 ЮЗ 2 35 км н/о +11.4 +8.8 84 +11 +11 1017.1 1009.2
00 18.06 Ю 1 35 км н/о +10.8 +8.5 86 +10 +10 1016.9 1008.9
01 18.06 ЮВ 2 27 км н/о +10.0 +9.0 93 +8 +8 1016.6 1008.7
02 18.06 Ю 1 24 км н/о +10.1 +8.9 92 +10 +10 1016.0 1008.1
03 18.06 ЮЗ 1 18 км н/о +8.4 +7.3 93 +7 +7 1015.9 1007.9
04 18.06 ЮВ 2 21 км н/о +9.7 +9.1 96 +8 +8 1015.6 1007.7
05 18.06 ЮВ 1 20 км н/о +9.2 +8.6 96 +9 +9 1015.7 1007.8
06 18.06 Ю 2 17 км н/о +12.1 +10.9 92 +11 +11 1015.7 1007.8 +8.2
07 18.06 Ю 1 26 км н/о +14.2 +11.5 84 +15 +15 1015.6 1007.8
08 18.06 Ю 2 60 км н/о +15.6 +11.2 75 +16 +16 1015.5 1007.7
09 18.06 ЮВ 1 45 км н/о +16.7 +10.7 68 +18 +18 1015.1 1007.3
10 18.06 ЮЗ 3 23 км н/о +17.0 +12.1 73 +17 +17 1015.3 1007.5
11 18.06 З 1 30 км н/о +15.3 +11.5 78 +17 +17 1014.4 1006.6
12 18.06 В 2 13 км н/о +15.9 +12.3 79 +16 +16 1014.1 1006.3 0.2
13 18.06 В 2 35 км н/о +16.1 +13.2 83 +16 +16 1013.8 1006.1
14 18.06 СВ 2 19 км н/о +16.3 +13.0 81 +16 +16 1013.1 1005.4
15 18.06 В 1 5000 м н/о +15.6 +13.6 88 +16 +16 1013.3 1005.5
16 18.06 С 2 1800 м н/о +15.2 +14.5 96 +15 +15 1012.4 1004.7
17 18.06 СВ 2 13 км н/о +16.2 +15.2 94 +16 +16 1011.6 1003.9
18 18.06 В 2 10 км н/о +16.0 +14.8 93 +16 +16 1011.4 1003.7 +17.4 6
19 18.06 С 2 7000 м н/о +15.8 +15.0 95 +16 +16 1011.1 1003.4
20 18.06 СЗ 2 7000 м н/о +15.5 +14.9 96 +15 +15 1011.2 1003.5
21 18.06 С 2 7000 м н/о +15.3 +14.7 96 +15 +15 1010.8 1003.0
22 18.06 СВ 2 6000 м н/о +15.2 +14.7 97 +15 +15 1010.1 1002.4
23 18.06 С 2 4100 м н/о +15.0 +14.6 97 +15 +15 1009.4 1001.7
00 19.06 С 2 3800 м н/о +14.9 +14.6 98 +15 +15 1009.5 1001.8 0.6
01 19.06 СЗ 2 3200 м н/о +14.5 +14.3 99 +14 +14 1008.3 1000.6
02 19.06 СЗ 2 1700 м н/о +13.7 +13.4 98 +13 +13 1008.0 1000.3
03 19.06 СВ 1 3300 м н/о +14.1 +14.0 99 +14 +14 1007.7 1000.0
04 19.06 СЗ 3 3900 м н/о +13.9 +13.7 99 +13 +13 1007.0 999.3
05 19.06 СЗ 2 3500 м н/о +13.8 +13.6 99 +13 +13 1007.0 999.3
06 19.06 С 1 4400 м н/о +14.1 +13.8 98 +14 +14 1007.2 999.4 +13.5 0.6
07 19.06 СЗ 2 5000 м н/о +14.6 +14.2 97 +14 +14 1007.2 999.5
08 19.06 С 2 10 км н/о +15.2 +13.8 91 +15 +15 1007.6 999.8

 

Местоположение метеостанции Фарнборо (Великобритания): широта 51.28 долгота -0.77 высота над уровнем моря 64 м.

В архиве по умолчанию представлена погода в Фарнборо за последнюю неделю. Архивные данные за месяц целиком и за предыдущие месяцы, начиная с января 2011 года, Вы можете получить, выбрав интересующий диапазон дат из раскрывающегося списка и нажав кнопку "Ввод!".


*Определитесь, кто Вы:
робот инопланетянин человек

Внимание! Время в таблицах - всемирное. Для получения местного времени необходимо прибавить поправку, которая равна 0 ч.

Смотрите также архив погоды в соседних городах и на ближайших метеорологических станциях:

Погода в Одихеме (Великобритания) (14 км)
Погода в Чарлвуде (Великобритания) (28 км)
Погода в Аэропорту Хитроу (Великобритания) (31 км)
Погода в Норхолте (Великобритания) (39 км)
Погода в Бенсоне (Великобритания) (43 км)
Погода в Хай-Уикоме (Великобритания) (45 км)
Погода на Аэродроме Кенли (Великобритания) (48 км)
Погода в Лондоне (Великобритания) (51 км)
Погода на Острове Торвер (Великобритания) (52 км)
Погода в Мидл Уоллоп (Великобритания) (58 км)

Пояснения к столбцам:

Ветер - указаны скорость ветра в м/с - средняя за 10 мин, порывы в срок и между сроками (в фигурных скобках) и направление, откуда дует ветер: С - северный, СВ - северо-восточный, В - восточный, ЮВ - юго-восточный, Ю - южный, ЮЗ - юго-западный, З - западный, СЗ - северо-западный.
Видимость - горизонтальная дальность видимости в метрах или километрах. При видимости от 1 до 10 км при отсутствии осадков обычно наблюдается дымка, при ухудшении видимости до 1 км и менее - туман. В сухую погоду видимость может ухудшаться дымом, пылью или мглою.
Явления - указаны атмосферные явления, наблюдавшиеся в срок или в последний час перед сроком; фигурными скобками обозначены явления, наблюдавшиеся между сроками (за 1-3 часа до срока); квадратными скобками обозначены град или гололедные отложения с указанием их диаметра в мм.
Облачность - указаны через наклонную черту общая и нижняя облачность в баллах и высота нижней границы облаков в метрах; квадратными скобками обозначены формы облаков: Ci - перистые, Cs - перисто-слоистые, Cc - перисто-кучевые, Ac - высококучевые, As - высокослоистые, Sc - слоисто-кучевые, Ns - слоисто-дождевые, Cu - кучевые, Cb - кучево-дождевые. Подробнее классификацию облаков см. в Атласе облаков (PDF).
T - Температура воздуха - температура, измеренная на высоте 2 м над землей.
Td - Температура точки росы - температура, при понижении до которой содержащийся в воздухе водяной пар достигнет насыщения.
f - Относительная влажность воздуха - влажноcть воздуха, измеренная на высоте 2 м над землей.
Te - Эффективная температура - температура, которую ощущает одетый по сезону человек в тени. Характеристика душности погоды. При расчете учитывается влияние влажности воздуха и скорости ветра на теплоощущения человека.
Tes - Эффективная температура на солнце - температура, которую ощущает человек, с поправкой на солнечный нагрев. Характеристика знойности погоды. Зависит от высоты солнца над горизонтом, облачности и скорости ветра. Ночью, в пасмурную погоду, а также при ветре 12 м/с и более поправка равна нулю.
P - Атмосферное давление - приведенное к уровню моря атмосферное давление.
Po - Атмосферное давление - измеренное на уровне метеостанции атмосферное давление.
Tmin - Минимальная температура - минимум температуры воздуха на высоте 2 м над землей.
Tmax - Максимальная температура - максимум температуры воздуха на высоте 2 м над землей.
R - Количество осадков - Количество выпавших осадков за период времени, мм. При наведении курсора мыши на число - период времени, за который выпало указанное количество осадков.
R24 - Количество осадков - Количество выпавших осадков за 24 часа, мм.
S - Снежный покров - Высота снежного покрова, см. При наведении курсора мыши на число - состояние снежного покрова и степень покрытия местности в баллах.